ROMMA est une association bénévole à but non lucratif. Votre soutien est indispensable : ADHERER à ROMMA ou FAIRE un DON

Lyon - (69, Rhône)

Plaine lyonnaise (169 m)   Longitude: 04° 49' 55" E   Latitude: 45° 43' 50" N Station partenaire n°124
 

Détail journalier du     <<     >>

Température Precipitation Humidité Pression Vent Dir Rafale Dir. rafale Ensol.
Heure (°C) (mm) (%) (hPa) (km/h) (km/h) (min)
01:00 16.106910157S24S0
02:00 16.406610156SO16SO0
03:00 15.806810155S14S0
04:00 15.707110155SE13S0
05:00 13.508010152S10S0
06:00 15.107910144S13S0
07:00 15.407910145SE13SO0
08:00 15.307710144SE16SE0
09:00 16.707310146S19SO30
10:00 17.8071101410S27SE10
11:00 18.5068101412SE35SE10
12:00 19.2068101413S35SO10
13:00 19.6067101414SO37SO0
14:00 19.9064101412SO29SE0
15:00 20.0061101414S40S0
16:00 19.8059101412S31S0
17:00 18.20.37210149SO27SO0
18:00 19.10.267101410SO23SO0
19:00 17.80.37510147S21S0
20:00 16.40.28410144SO16SO0
21:00 15.908710143SO10S0
22:00 14.109010152SE6SE0
23:00 15.309110152SO6S0
minuit 16.308610143SO14SO0

Graphique du 17-10-2019

 

Serveur OMMA